Showing default

EXPLORER 22, 899

Orbit data source: Space-Track

EXPLORER 22, 899 is a payload satellite owned by GSFC (US) in LEO that was launched on Sat, 10 Oct 1964 UTC via an SCOUT X-4 launch vehicle from the Air Force Western Test Range (AFWTR). Payload-class satellites include a variety of spacecraft equipped with specific instruments for various scientific and technological missions. These include communications satellites like Starlink; space stations such as the ISS; scientific satellites like the Hubble; Earth observation satellites from companies like Planet Labs, Umbra, and HawkEye 360; GPS; miniature CubeSats for education and research; and military/defense satellites.

Loading next visibility...
Identifier
899, 1964-064A
Orbit
LEO
Country
Flag of USUS
Related business
Manufacturer
APL
Mission
Spacecraft
Bus & Motor
TRANSIT 5, Unknown motor
Mass
52 kg wet, 52 kg dry
Launch date (UTC)
1964-10-10 (61 years ago)
Launch vehicle
SCOUT X-4
Launch site
Air Force Western Test Range (AFWTR)
Object type
Payload
Rocket body
Debris
Shape & HBR
Unknown
Radar Cross Section
Large (>1 m²)

Expand to show TLE details & history
Last TLE update: 17 hours ago

TLE from 17 hours ago
0 EXPLORER 22
1 00899U 64064A   25352.38620281  .00000214  00000-0  18076-3 0  9995
2 00899  79.6906 324.8472 0119183 311.4850  47.6115 13.82988024 79982
Epoch: 2025-12-18T09:16Z
TLE epoch observation values (Epoch: 2025-12-18T09:16:07.922Z)
Latitude
-0.0001°
Longitude
98.57172°
Altitude
897.775 km
Speed
7.433 km/s
True Right ascension
21h 39m 23s
True Declination
0° 00' 00"
Sunlit
Object was in daylight at epoch
Visualization orbit readout
Latitude
Unknown
Longitude
Unknown
Altitude
Unknown
Speed
Unknown
Apparent Right ascension
Unknown
Apparent Declination
Unknown
Sunlit
N/A
Visualization observer readout
Local Sidereal Time
01:31:05
Azimuth
Unknown
Elevation
Unknown
Doppler factor
Unknown
Orbital elements
Apogee altitude
1,037.943 km
Perigee altitude
863.251 km
Semi-major axis
7,328.734 km
Eccentricity
0.01192
Inclination
79.6906°
RAAN
324.8472°
Arg. of periapsis
311.485°
True anomaly
48.6304°
Mean anomaly
47.6115°
Eccentric anomaly
48.11993°
Mean motion
3.45939 °/min
Orbital period
104.06 mins
BSTAR
0.00018076
Loading maneuver chart data...
Computing Atmospheric mass density...
Loading historical data...
Loading historical data...
Loading historical data...
Loading historical data...
Loading historical data...
Loading historical data...
Loading historical data...
Other satellites on launch #64 in the year 1964 (1964-10-10 UTC)

Documentation

Showing up to 5 results
|